Location: Observatoire
(46.1952°N, 5.3391°E)
Time: 15:05:16
(UTC+02:00)

CUBEBUG 2 - Visible Passes

Search period start: 13 April 2024 00:00
Search period end: 23 April 2024 00:00
Orbit: 571 x 672 km, 97.8° (Epoch: 12 April)

Date Brightness Start Highest point End Pass type
(mag) Time Alt. Az. Time Alt. Az. Time Alt. Az.
13 Apr ? 04:04:42 10° N 04:07:58 54° N 04:07:58 54° N visible
14 Apr ? 02:47:31 10° NE 02:48:50 14° ENE 02:48:50 14° ENE visible
14 Apr ? 04:22:35 10° N 04:26:02 45° NW 04:26:02 45° NW visible
15 Apr ? 03:04:38 10° NE 03:06:53 21° ENE 03:06:53 21° ENE visible
15 Apr ? 04:40:34 10° N 04:44:05 31° WNW 04:44:05 31° WNW visible
16 Apr ? 03:22:03 10° NNE 03:24:56 32° ENE 03:24:56 32° ENE visible
16 Apr ? 04:58:42 10° NNW 05:01:48 21° WNW 05:02:09 21° WNW visible
17 Apr ? 03:39:36 10° NNE 03:42:59 50° ENE 03:42:59 50° ENE visible
17 Apr ? 05:17:05 10° NNW 05:19:22 15° WNW 05:20:11 14° WNW visible
18 Apr ? 03:57:17 10° NNE 04:01:01 74° N 04:01:01 74° N visible
19 Apr ? 02:40:30 10° ENE 02:41:51 13° ENE 02:41:51 13° ENE visible
19 Apr ? 04:15:05 10° N 04:19:03 57° WNW 04:19:03 57° WNW visible
20 Apr ? 02:57:21 10° NE 02:59:52 20° E 02:59:52 20° E visible
20 Apr ? 04:32:58 10° N 04:36:44 37° WNW 04:37:04 36° W visible
21 Apr ? 03:14:37 10° NNE 03:17:52 30° E 03:17:52 30° E visible
21 Apr ? 04:50:59 10° NNW 04:54:20 25° WNW 04:55:04 24° W visible
22 Apr ? 03:32:05 10° NNE 03:35:52 47° E 03:35:52 47° E visible
22 Apr ? 05:09:10 10° NNW 05:11:53 17° WNW 05:13:04 16° W visible
